Flag for U.S.A. Weather past 2 weeks in Owensboro, Kentucky, U.S.A.

Now
72 °F

Sunny.


Feels Like: 76 °F
Forecast: 59 / 81 °F
Wind: 3 mph from West

Location: Owensboro / Daviess

Current Time: Jul 29, 2014 at 9:08:42 PM

Latest Report: Jul 29, 2014 at 7:56 PM


Visibility: 10 mi

Pressure: 30.06 "Hg

Humidity: 59%

Dew point: 57 °F

Location of OwensboroLocation

Historic Weather in Owensboro — Graph

°F

Owensboro temperature yesterday

Maximum temperature yesterday: 80 °F (at 3:56 PM)
Minimum temperature yesterday: 63 °F (at 5:56 AM)
Average temperature yesterday: 71 °F

Past Weeks' High & Low Weather Summary

 TemperatureHumidityPressure
High96 °F (Jul 26, 3:56 PM)100% (Jul 19, 4:56 AM)30.13 "Hg (Jul 19, 4:56 AM)
Low53 °F (Jul 29, 4:56 AM)31% (Jul 17, 2:56 PM)29.79 "Hg (Jul 27, 4:56 PM)
Average73 °F69%30.01 "Hg
* Reported Jul 14 7:56 PM — Jul 29 7:56 PM, Owensboro, Weather by CustomWeather, © 2014

Note: Actual official high and low records may vary slightly from our data, if they occured in-between our weather recording intervals... More about our weather records

Advertising

Owensboro weather history for previous 24 hours

 ConditionsComfort  
Time TempWeatherWind HumidityBarometerVisibility
7:56 PM
Jul 29
72 °FSunny.3 mph59%30.06 "Hg10 mi
6:56 PM75 °FSunny.6 mph52%30.06 "Hg10 mi
5:56 PM77 °FPassing clouds.12 mph46%30.07 "Hg10 mi
4:56 PM78 °FSunny.8 mph45%30.08 "Hg10 mi
3:56 PM78 °FScattered clouds.10 mph45%30.09 "Hg10 mi
2:56 PM78 °FScattered clouds.10 mph44%30.09 "Hg10 mi
1:56 PM77 °FScattered clouds.9 mph45%30.09 "Hg10 mi
12:56 PM76 °FScattered clouds.8 mph48%30.10 "Hg10 mi
11:56 AM74 °FSunny.10 mph52%30.11 "Hg10 mi
10:56 AM73 °FSunny.12 mph52%30.11 "Hg10 mi
9:56 AM69 °FSunny.12 mph55%30.11 "Hg10 mi
8:56 AM65 °FSunny.6 mph61%30.11 "Hg10 mi
7:56 AM60 °FSunny.6 mph75%30.11 "Hg10 mi
6:56 AM56 °FSunny.No wind83%30.10 "Hg10 mi
5:56 AM53 °FClear.6 mph90%30.09 "Hg10 mi
4:56 AM53 °FClear.No wind90%30.08 "Hg10 mi
3:56 AM56 °FClear.No wind81%30.07 "Hg10 mi
2:56 AM56 °FClear.5 mph83%30.06 "Hg10 mi
1:56 AM59 °FClear.No wind75%30.06 "Hg10 mi
12:56 AM63 °FClear.6 mph63%30.06 "Hg10 mi
11:56 PM
Jul 28
64 °FClear.9 mph65%30.07 "Hg10 mi
10:56 PM65 °FClear.8 mph70%30.06 "Hg10 mi
9:56 PM67 °FClear.7 mph66%30.05 "Hg10 mi
Weather by CustomWeather, © 2014

See weather overviewHow to use our weather pages